Theta_e
330 330 330 331 331 331 331 331 331 330 328 325 325 325 324 326 328 329 329 328 327 326 328 328 328 329 329 329 328 331 333 333 333 328 334 335 329 334 339 337 338 336 334 334 335 335 335 334 332 329 325 322 316 311 310 310 312 318 321 319 313 314 322 325 325 326 328 328 323 318 314 312 313 313 311 312 317 322 324 324 322 322 316 312 316 314 312 312 311 311 310 311 310 310 310 310 311
330 330 330 330 331 331 331 332 332 329 326 324 324 324 324 327 329 329 329 328 328 327 329 329 328 329 328 328 327 331 334 335 330 326 332 328 328 338 339 337 338 336 335 333 335 335 335 334 331 329 325 321 315 311 310 311 315 323 326 325 320 317 320 324 326 328 330 328 320 314 313 312 313 313 311 312 316 320 320 322 322 321 316 313 314 313 311 312 311 311 310 311 310 310 310 310 311
331 330 330 331 331 332 332 334 333 328 325 323 323 325 326 326 327 329 329 329 330 330 330 329 328 328 327 328 328 331 335 336 331 325 329 326 327 337 338 337 337 337 336 334 334 333 333 333 330 327 323 320 314 310 310 311 318 324 327 328 327 325 326 328 330 331 331 328 318 313 313 313 314 313 312 311 314 319 319 317 318 317 314 312 312 312 311 311 311 311 311 311 310 310 310 310 311
331 330 330 331 331 333 334 335 335 330 326 323 324 326 326 326 326 330 331 330 331 330 330 329 329 329 328 329 328 331 335 335 335 327 326 328 327 335 339 337 336 337 336 335 334 330 330 332 329 325 321 318 313 310 310 311 319 325 327 329 329 331 331 332 332 332 331 327 317 313 313 312 314 313 312 312 312 315 315 315 317 316 315 313 311 311 311 311 311 311 311 311 311 311 310 310 310
330 330 330 331 332 333 334 335 335 331 327 325 325 327 327 325 327 330 331 331 331 330 330 328 329 329 327 329 330 333 335 334 336 327 324 332 329 334 339 336 336 337 336 336 334 327 326 330 327 323 320 317 314 310 310 314 321 326 328 330 330 332 332 333 332 331 331 326 317 313 313 313 314 314 313 312 312 313 312 313 315 314 313 312 311 311 311 311 311 311 311 311 311 310 311 310 310
329 331 331 332 332 332 334 334 333 331 330 330 328 328 328 325 326 330 331 331 331 331 330 328 327 327 329 330 331 333 335 334 335 328 324 330 327 332 339 336 335 336 336 337 335 327 325 329 325 322 320 316 314 311 310 315 322 326 328 330 331 332 332 332 332 330 330 325 319 315 313 313 314 314 313 312 312 313 312 312 312 311 311 311 311 311 311 311 311 311 311 311 311 311 311 310 310
329 331 332 333 333 333 335 334 333 333 332 331 329 328 328 327 325 328 331 331 331 331 329 329 327 327 330 329 332 333 332 333 334 331 327 326 323 331 337 335 335 336 337 337 335 329 326 326 324 321 319 316 314 312 311 315 322 326 329 330 331 332 331 331 331 330 328 324 320 316 313 313 314 314 313 312 312 312 313 312 312 312 312 311 311 311 311 311 311 311 311 311 311 311 311 311 311
330 331 331 334 335 335 336 335 334 335 333 331 330 328 328 328 326 327 329 330 330 331 329 328 327 327 330 328 332 333 329 330 330 330 329 324 320 327 334 334 335 336 337 337 334 329 324 322 322 319 318 316 314 313 311 313 321 326 328 330 330 331 330 330 329 329 327 324 321 316 313 313 313 314 313 312 312 312 313 312 312 312 312 312 312 311 311 311 311 311 311 311 311 311 312 311 311
330 331 331 334 336 335 335 334 334 335 333 332 331 329 328 327 326 326 328 329 328 329 329 328 328 328 328 329 333 334 328 327 328 328 329 325 318 321 330 333 334 336 336 335 333 328 323 321 320 318 318 316 315 314 311 312 318 323 326 327 329 330 329 328 328 328 326 325 321 315 313 313 313 314 313 312 312 312 313 313 312 312 312 312 312 311 311 311 311 311 311 311 311 311 311 312 312
330 331 332 334 335 334 332 332 334 335 333 332 331 330 328 328 326 326 327 329 326 327 329 327 328 327 325 330 336 336 330 326 327 327 328 326 319 317 326 332 332 334 335 334 332 329 324 322 320 318 319 317 315 314 312 312 316 320 323 324 326 327 327 327 326 327 327 325 321 315 314 313 313 314 313 312 312 312 313 313 313 313 312 312 312 312 312 311 311 311 311 311 311 311 311 311 312
331 331 333 334 334 332 331 331 334 335 333 332 330 328 327 327 326 326 327 328 326 328 329 326 327 327 323 330 336 335 329 326 326 326 327 327 321 316 320 330 333 332 332 333 330 328 326 324 321 319 318 317 315 314 312 312 314 318 322 323 324 323 324 325 325 327 329 327 322 317 314 313 313 313 313 313 312 312 313 313 313 313 313 312 312 312 312 311 311 311 311 311 311 311 311 311 311
331 333 334 335 334 333 332 332 334 335 334 332 329 327 327 326 326 326 327 327 326 328 328 326 326 325 322 332 335 330 327 327 326 326 326 327 322 317 315 326 335 332 329 333 330 324 325 325 322 320 319 318 315 315 313 312 314 316 319 322 321 320 320 322 324 329 330 327 323 319 315 313 313 313 313 313 313 312 312 313 313 313 313 313 312 312 312 311 311 311 311 311 311 311 311 311 311
331 333 334 335 335 334 334 333 334 335 334 331 327 327 327 326 327 327 327 327 327 327 328 326 326 325 325 334 333 328 329 327 325 326 325 326 323 317 314 322 334 332 327 332 330 323 321 323 322 320 318 318 316 315 314 312 313 315 317 319 319 319 318 319 324 329 330 326 323 319 315 313 313 313 313 313 313 312 312 313 313 313 313 313 313 312 312 312 311 311 311 311 311 311 311 311 310
330 331 334 335 336 334 334 334 334 334 331 328 327 327 328 327 328 328 327 328 328 329 329 327 326 327 326 331 332 332 331 326 324 326 324 325 323 319 316 317 327 332 329 327 329 327 322 318 319 319 318 318 317 316 314 312 312 314 317 318 318 318 318 319 324 328 328 325 322 319 316 314 314 313 313 313 313 313 313 313 313 313 313 313 313 313 312 312 312 312 312 311 311 311 311 311 310
329 330 333 334 335 334 333 334 334 334 331 327 328 328 327 327 327 327 327 328 329 330 329 327 326 327 327 330 335 334 328 325 325 325 324 323 323 320 317 316 319 327 328 323 327 329 326 320 317 317 319 317 316 316 314 311 311 314 315 318 319 318 318 320 324 327 326 323 321 319 317 315 314 313 313 313 313 313 313 313 313 313 313 313 313 313 313 313 312 312 312 312 311 311 311 311 311
329 329 332 334 334 334 333 334 334 334 331 328 328 329 328 327 326 327 327 327 328 328 328 328 328 327 328 332 334 329 324 324 324 324 325 323 322 320 317 317 316 320 323 322 326 329 327 325 320 316 317 317 316 315 313 311 311 313 314 317 320 318 318 320 323 325 325 323 321 320 318 316 314 314 313 313 313 313 313 313 313 313 313 313 313 313 313 313 313 313 312 312 312 311 311 311 311
328 330 333 334 333 333 333 333 334 333 331 328 328 329 329 326 325 327 327 326 326 328 328 328 330 328 328 332 330 326 324 324 324 324 325 322 322 320 317 317 316 318 319 320 326 329 327 326 324 320 317 315 315 314 312 311 310 311 312 315 318 318 318 319 320 323 324 323 321 320 319 317 316 314 313 313 313 313 313 313 313 313 313 313 313 313 313 313 313 313 313 312 312 312 312 312 312
329 331 333 333 333 332 332 332 332 332 331 328 328 329 329 328 327 327 327 327 326 327 328 327 329 329 327 329 327 325 324 324 324 324 324 323 321 320 318 316 315 316 318 319 324 328 328 326 325 323 320 316 314 314 313 311 310 310 311 312 315 317 318 318 319 320 322 321 320 319 319 318 316 315 313 313 313 313 313 313 313 313 313 313 313 313 313 313 313 313 313 313 313 313 312 312 312
329 331 333 332 332 332 331 331 331 331 331 330 328 328 328 328 328 327 328 329 328 328 328 327 329 330 328 328 326 325 325 324 325 324 324 323 322 321 319 317 316 314 316 317 320 325 326 326 325 324 323 319 314 315 315 313 311 310 310 311 312 314 317 317 317 318 319 319 318 318 318 318 317 315 313 313 313 313 313 313 313 313 313 313 313 313 313 313 314 313 313 313 313 313 313 313 313
328 331 332 332 331 330 331 330 330 331 331 331 330 329 328 329 329 328 329 329 330 330 330 328 328 330 330 329 327 326 325 325 324 325 324 324 323 322 321 319 318 315 315 315 316 319 321 322 323 324 324 320 316 316 316 315 313 311 309 310 311 312 315 316 316 316 316 317 317 317 317 318 321 321 317 315 313 312 313 313 313 313 313 313 313 313 313 313 313 313 313 313 313 313 313 313 313
328 329 330 330 329 330 330 330 330 330 330 330 330 330 329 329 329 329 329 329 330 330 330 329 328 330 331 330 329 328 327 325 325 325 325 325 324 323 323 322 321 319 316 315 315 315 316 317 319 322 322 319 316 315 316 314 313 312 310 309 310 310 313 316 316 316 315 315 316 316 316 318 323 323 320 319 315 312 313 313 313 313 313 313 313 313 313 313 313 313 313 313 313 313 313 313 313
327 328 329 328 329 329 329 329 329 329 329 330 329 329 330 329 329 328 328 329 330 329 329 328 327 330 331 331 331 329 327 324 324 325 324 324 324 324 324 323 323 322 320 318 315 313 314 315 316 318 319 318 315 314 314 314 313 313 312 310 309 310 313 315 316 315 315 315 315 316 316 317 322 321 318 318 316 313 312 313 313 313 313 313 313 313 313 313 313 313 313 313 313 313 313 313 313
326 327 327 327 328 328 328 329 329 329 329 329 329 329 329 329 329 329 329 329 329 329 329 329 328 328 329 331 332 330 327 324 323 324 324 324 324 325 324 324 324 323 323 321 318 315 313 313 314 314 315 315 314 313 313 314 314 313 312 311 311 312 314 315 316 315 315 315 315 315 316 316 319 319 316 316 315 313 313 313 312 313 313 313 313 313 313 313 313 313 313 313 313 313 313 313 313
326 326 326 326 327 327 328 328 328 329 329 328 329 329 329 329 328 328 329 329 329 329 328 328 328 328 327 329 331 330 329 324 322 322 323 324 324 325 325 325 325 324 323 323 321 318 315 312 312 313 313 313 312 313 313 313 313 312 312 311 311 312 314 315 316 316 316 316 315 315 316 315 316 317 317 316 315 314 313 313 313 313 313 313 313 313 313 313 313 313 313 313 313 313 313 313 313
325 325 326 325 326 327 327 328 328 328 329 329 328 328 328 329 328 328 329 329 329 329 328 328 328 328 327 327 328 329 330 327 324 323 322 323 324 325 325 326 326 326 324 323 323 322 319 316 312 312 312 312 311 311 312 312 311 311 311 311 311 312 313 313 314 316 317 316 316 315 315 315 315 316 316 315 315 315 314 313 313 313 313 313 313 313 313 313 313 313 313 313 313 313 313 313 313
324 324 325 325 326 327 326 326 327 327 329 329 328 328 328 329 328 328 328 329 329 329 329 328 328 329 328 328 328 328 330 329 329 326 323 323 323 324 325 325 327 326 324 324 323 323 322 320 317 314 312 311 311 311 312 312 311 310 310 310 310 311 312 311 311 313 314 315 315 315 315 316 316 315 315 315 315 315 314 313 313 313 313 313 313 313 313 313 313 313 313 314 313 313 313 313 313
323 324 324 324 325 326 326 325 325 326 327 328 328 328 328 328 328 328 328 329 329 329 329 329 329 329 329 329 328 328 329 329 330 329 326 324 323 323 324 324 325 325 325 324 323 322 322 322 321 319 316 313 311 310 311 311 311 310 310 310 310 310 310 310 310 310 311 312 312 313 314 315 315 314 315 315 315 314 314 313 313 313 313 313 313 313 313 313 314 314 313 314 313 314 313 313 313
324 324 324 324 324 324 325 325 325 325 326 327 327 327 328 328 328 328 328 329 329 329 329 329 329 329 329 329 328 329 329 329 330 331 330 327 324 323 323 323 324 325 325 324 323 323 322 322 321 321 321 318 315 312 311 310 311 311 310 310 310 310 310 310 310 310 310 310 311 311 312 313 313 314 315 315 315 315 314 314 313 313 313 313 313 313 313 314 314 314 314 314 314 314 313 314 313
323 323 323 323 323 323 324 324 325 325 325 326 326 327 327 327 327 327 327 328 328 329 329 329 328 329 329 328 329 329 329 329 329 330 330 329 326 323 323 323 323 324 324 325 324 324 323 322 321 321 322 321 320 317 314 312 310 311 311 310 310 310 310 310 310 310 310 310 310 311 311 312 313 313 314 314 314 315 314 314 314 314 313 313 314 313 314 314 314 314 314 314 314 314 314 314 314
323 322 323 323 324 324 323 323 323 324 325 324 326 328 328 326 326 326 326 327 327 328 328 328 328 328 329 329 329 329 329 329 329 330 329 328 327 324 322 322 323 324 324 324 324 324 324 324 323 322 322 321 322 321 319 317 313 311 310 310 310 310 310 310 310 310 310 310 310 310 310 311 312 312 312 312 313 314 314 314 314 314 314 314 314 314 314 314 314 314 314 314 314 314 314 314 314
322 322 323 323 325 324 322 322 322 323 324 323 325 327 327 325 325 325 325 326 327 328 328 328 328 328 329 328 329 329 329 329 329 329 329 328 328 326 324 322 322 323 323 323 324 324 324 324 324 323 322 322 321 322 322 321 318 315 312 310 310 310 310 310 310 310 310 310 310 310 310 310 311 311 311 311 311 312 313 313 313 313 313 313 313 314 314 314 314 314 314 314 314 314 314 314 314
322 323 325 324 325 324 321 321 322 322 323 323 325 327 326 325 324 324 324 325 326 327 328 328 328 328 329 329 329 329 329 329 329 329 330 330 329 328 327 325 322 322 322 322 323 323 324 324 324 324 324 323 322 321 321 321 321 320 317 314 311 310 310 310 310 310 310 310 310 310 310 310 310 310 310 310 311 311 311 312 312 312 312 313 313 313 313 313 314 314 314 314 314 314 313 314 314
322 323 325 325 324 324 322 322 321 321 323 323 324 326 327 325 324 324 324 324 324 325 326 327 328 329 328 329 328 328 329 329 329 330 330 330 330 329 328 328 326 323 322 322 322 323 323 323 323 324 324 324 323 322 321 321 321 321 320 319 316 313 310 309 309 309 309 309 309 310 309 310 310 310 310 310 310 310 310 311 311 311 311 312 312 312 312 313 313 313 313 313 313 313 313 313 313
322 322 323 323 323 323 322 322 322 321 322 323 324 325 326 326 324 324 323 324 324 325 325 325 327 328 328 328 328 327 328 329 329 329 330 331 330 329 328 328 328 326 324 323 323 323 323 323 323 323 323 323 324 323 323 322 321 321 321 321 320 318 315 312 310 309 309 309 309 309 309 310 310 310 310 309 310 309 310 310 310 310 311 311 311 311 312 312 312 312 312 312 313 313 312 312 312
322 322 323 323 322 322 321 321 322 322 322 323 324 325 325 326 325 324 324 323 324 325 325 325 326 327 328 327 327 327 327 328 329 329 329 330 330 330 329 329 329 329 328 326 325 325 324 324 324 323 322 322 323 323 323 323 322 322 322 321 321 320 319 317 314 311 310 309 309 309 309 309 309 309 309 310 310 309 309 309 309 309 310 310 310 311 311 311 311 311 311 311 311 311 311 311 311
321 321 321 322 322 322 322 321 322 323 325 324 324 325 325 325 325 324 324 324 324 323 323 325 326 326 326 326 326 326 326 326 327 328 328 329 330 331 331 330 330 329 329 329 327 326 326 326 326 325 324 323 322 323 323 323 323 323 322 322 321 320 319 318 318 316 314 312 311 310 310 309 309 309 309 309 310 310 310 309 309 309 309 309 310 310 311 311 311 311 311 311 310 310 310 310 310
320 321 321 321 322 322 322 322 322 322 324 325 325 325 325 325 325 324 324 324 324 323 323 323 324 324 324 325 326 325 325 324 325 327 328 328 329 330 330 329 329 329 328 328 328 327 327 326 326 326 326 325 324 323 323 323 323 322 321 320 319 319 319 318 317 317 317 316 315 314 312 312 310 310 310 310 310 309 310 310 309 309 309 309 309 310 310 310 311 311 311 311 310 310 310 310 310
320 321 321 321 322 322 322 322 323 322 323 325 325 325 324 324 324 323 323 323 323 323 323 323 323 324 324 324 325 325 325 324 324 325 326 326 326 327 327 326 326 326 327 328 327 327 327 326 325 325 325 324 324 323 323 323 322 322 321 320 319 318 318 317 316 315 315 316 317 317 316 316 314 313 312 311 311 310 310 310 309 309 309 309 310 310 310 310 310 310 310 310 310 310 310 310 310
321 322 321 322 321 321 321 321 321 321 322 323 323 323 322 322 322 322 322 322 322 322 322 323 323 324 324 324 324 324 324 324 324 324 325 325 325 325 325 325 324 323 325 326 327 327 326 326 325 324 323 324 324 324 323 323 324 323 323 322 321 320 319 317 316 316 316 315 315 316 317 318 317 317 315 314 313 312 311 311 310 310 309 309 309 309 310 310 310 310 310 310 310 310 310 310 309
323 322 322 322 321 322 322 321 320 321 321 321 322 322 322 321 322 321 321 321 321 322 321 322 322 323 324 324 324 324 324 324 324 324 324 324 324 325 324 324 324 323 323 325 326 327 327 327 326 325 325 325 325 326 326 325 325 325 324 323 323 323 322 321 320 319 318 316 315 315 315 316 317 318 317 317 316 315 314 313 312 312 311 311 310 310 310 310 310 310 309 310 309 309 309 309 309
324 323 323 323 322 322 322 321 321 320 321 321 322 324 323 322 322 321 321 321 321 321 321 321 321 321 322 323 324 324 324 324 324 324 324 324 324 324 324 324 323 323 323 323 324 325 326 327 327 327 327 326 326 327 327 326 326 325 325 325 324 324 324 324 323 321 320 318 316 315 315 315 315 316 316 316 317 317 316 316 315 314 314 313 313 312 311 311 310 310 310 310 309 309 309 309 309
324 324 324 323 322 323 322 322 323 323 323 322 322 325 324 322 323 322 321 321 321 321 320 320 321 320 321 322 323 324 324 324 324 323 323 323 323 324 324 324 324 323 323 321 321 322 323 325 325 326 327 327 327 327 327 327 326 326 326 327 326 326 325 325 324 322 321 319 318 316 315 315 315 314 315 314 315 315 316 317 317 316 315 315 315 314 314 313 312 311 311 310 310 310 310 310 310
323 323 324 324 323 324 324 324 325 325 325 323 322 325 325 323 322 322 321 322 322 321 321 320 321 321 321 322 322 323 323 323 323 323 322 322 322 323 324 324 324 324 323 321 320 320 321 322 322 323 324 326 327 327 328 328 327 327 327 327 328 328 327 326 325 323 322 321 320 319 317 317 316 315 315 315 314 314 314 315 316 317 317 316 316 315 315 315 314 313 313 312 311 311 310 310 310
322 322 324 325 324 325 325 325 325 325 325 324 323 325 326 324 322 321 321 322 322 322 322 321 321 321 321 321 321 321 322 323 323 323 322 322 322 322 322 323 323 323 323 322 322 322 321 320 320 321 321 322 323 324 325 325 326 327 328 328 328 328 328 328 326 324 323 323 322 321 320 319 318 317 317 316 316 315 314 314 315 316 317 317 316 316 316 316 315 315 315 314 313 312 311 311 311
321 323 326 326 324 325 325 325 325 324 325 326 324 324 326 324 321 321 322 322 321 321 321 321 320 320 321 321 321 321 322 323 323 323 322 322 323 323 322 321 321 321 322 322 322 321 321 320 320 321 321 321 321 321 321 322 322 323 326 327 327 328 328 328 327 326 325 324 323 323 322 322 321 320 319 318 318 317 316 315 314 315 315 316 317 316 316 316 316 316 315 315 314 314 313 312 312
320 323 326 325 324 325 325 325 325 325 326 326 324 324 326 325 321 321 323 321 321 321 321 321 320 320 321 321 321 322 323 323 323 323 322 322 323 323 323 322 321 321 321 321 321 321 322 322 322 322 322 321 321 321 321 321 320 321 323 325 326 327 328 328 327 327 326 325 324 323 323 323 322 322 321 321 320 319 319 318 316 315 315 315 316 316 316 316 316 316 316 315 315 315 314 314 313
319 321 324 324 324 324 325 325 324 325 327 326 323 322 325 325 322 321 322 322 321 322 321 321 321 320 321 321 321 322 323 324 323 322 322 322 322 322 323 323 322 322 321 321 322 322 322 323 323 323 323 322 323 323 323 323 322 323 323 323 323 324 326 328 327 327 327 325 325 324 323 323 323 323 323 322 322 321 321 320 319 317 316 315 316 316 316 316 316 316 316 316 315 315 315 315 314
320 320 321 323 324 324 324 324 324 326 327 325 323 322 324 325 323 321 322 321 321 322 321 322 321 320 321 321 321 322 322 322 322 321 321 322 322 322 322 322 322 322 322 322 323 322 322 323 323 323 323 324 324 324 324 324 324 324 324 324 324 323 324 326 327 327 327 326 325 324 324 324 323 323 323 323 322 322 322 321 321 320 319 317 316 316 316 316 316 316 316 316 315 315 315 315 315
322 321 321 322 324 324 324 323 323 324 325 323 322 323 325 325 322 321 321 321 321 321 320 321 321 320 320 321 321 321 321 321 321 321 322 322 321 321 320 320 321 322 322 323 322 322 321 322 322 322 323 323 323 323 323 323 323 323 323 324 324 324 324 325 326 327 327 327 326 325 324 324 323 323 323 322 321 321 322 321 321 321 321 319 317 316 316 316 316 315 315 315 315 315 315 315 315
322 321 321 322 322 322 322 322 322 321 321 321 321 323 325 324 322 321 321 320 321 320 320 320 320 320 320 320 320 320 320 320 320 320 321 320 319 319 319 319 320 321 322 322 321 321 321 321 322 322 322 322 321 321 322 322 322 322 323 323 323 323 324 324 325 326 326 327 327 326 325 324 324 323 323 322 321 322 321 322 321 321 321 321 320 318 317 316 316 316 315 315 316 316 316 316 316
321 321 321 322 321 320 320 320 320 320 320 321 322 323 325 324 322 320 319 319 320 320 320 320 320 320 320 320 319 319 319 319 319 319 319 319 319 318 319 319 319 320 321 321 320 320 320 320 321 321 320 321 321 321 321 321 322 322 322 322 323 323 323 323 324 324 325 326 326 327 326 326 325 325 324 324 323 323 323 323 322 322 322 321 321 320 319 317 316 316 316 316 316 316 317 317 316
321 321 321 321 320 319 319 320 320 320 321 322 322 324 324 321 320 320 319 320 319 319 320 320 320 320 320 320 320 319 319 319 319 319 319 320 320 319 319 319 320 320 319 319 319 320 320 320 320 320 320 320 320 321 321 321 321 321 321 322 322 322 323 323 323 324 324 324 325 326 326 326 326 326 326 326 325 325 324 324 324 323 322 322 322 321 320 319 317 317 317 316 316 316 317 317 316
320 322 321 320 319 319 321 321 320 320 321 322 321 322 322 321 322 320 320 321 319 319 320 318 319 320 319 320 320 320 320 319 320 320 320 320 320 320 319 319 319 319 319 320 320 319 320 320 320 320 320 320 320 320 320 320 321 321 321 321 321 322 322 323 323 323 323 324 324 325 326 327 327 327 326 326 326 326 325 325 324 324 324 323 322 322 321 320 319 318 317 317 316 316 317 317 317
318 321 321 320 320 319 319 320 321 321 321 321 320 321 321 321 323 322 321 321 320 320 321 319 318 319 319 319 320 320 320 320 320 320 320 320 320 320 321 321 321 321 321 321 320 320 320 320 320 319 319 319 319 319 319 320 320 320 320 320 321 321 321 322 322 323 323 323 324 324 325 326 327 327 327 327 327 326 326 326 325 325 324 324 323 323 322 322 321 320 318 318 317 317 318 318 317
315 318 319 320 320 320 319 319 321 322 321 320 320 320 319 319 320 320 321 321 320 320 321 321 320 319 319 320 320 320 320 320 320 321 322 322 323 323 322 322 321 321 320 320 319 319 318 318 318 318 318 318 318 318 318 318 318 319 319 319 319 320 320 321 321 322 322 323 323 323 324 324 325 326 326 326 327 327 327 326 326 325 325 325 324 324 323 322 322 321 320 319 318 318 318 318 318
314 314 316 319 320 320 320 320 320 320 320 319 319 319 319 318 318 318 319 318 319 320 320 321 320 318 319 320 320 320 320 320 321 321 322 321 321 321 320 320 319 319 318 318 318 318 318 318 317 318 318 317 317 318 317 318 318 318 318 318 319 319 319 320 320 321 322 322 322 323 323 323 323 324 325 325 326 327 327 327 326 326 325 325 325 324 324 323 323 322 322 321 320 319 318 318 318
314 314 315 317 318 319 319 319 319 320 319 319 319 317 317 319 320 319 318 318 319 320 321 321 319 317 319 319 319 320 319 319 320 319 319 319 319 319 318 318 318 317 318 318 318 318 318 318 317 317 318 318 318 318 317 317 317 317 317 317 317 318 318 319 319 320 320 321 321 322 322 322 323 323 323 324 325 326 326 327 326 326 325 325 325 325 324 324 323 323 322 322 321 320 320 319 319
315 314 314 314 315 317 317 317 317 319 319 319 320 318 319 320 321 318 317 318 319 319 319 319 318 317 318 318 318 319 318 319 319 318 317 317 316 317 317 317 317 317 317 317 317 318 317 317 316 316 317 317 318 318 318 317 316 316 317 317 317 317 317 318 318 319 319 319 320 320 320 321 322 322 323 323 324 325 326 326 326 326 325 325 325 325 324 324 324 323 322 322 321 321 321 320 320
Wind_Speed
18 18 17 17 17 17 17 9 5 3 2 2 5 4 3 2 1 2 6 4 4 8 8 7 7 8 5 5 6 13 15 8 5 2 2 9 18 17 13 14 16 13 10 13 14 12 9 6 4 2 1 1 1 2 3 6 11 11 11 10 10 13 11 9 8 7 6 7 7 7 7 8 8 9 12 13 13 14 13 13 13 14 14 14 14 15 15 15 16 17 18 17 17 17 18 19 20
18 18 16 17 17 12 11 5 2 2 1 4 4 3 2 1 3 6 8 6 6 6 6 6 5 6 5 2 1 8 13 11 10 8 11 17 20 17 16 15 12 12 10 11 14 12 10 8 5 3 2 2 2 1 3 7 11 11 12 12 12 12 11 10 9 8 7 7 8 8 8 8 8 9 12 13 13 13 13 13 13 14 14 14 14 14 15 15 16 17 17 17 18 17 17 18 19
18 18 17 19 19 11 11 6 2 3 2 4 3 2 1 3 6 8 8 8 8 6 4 4 2 3 3 2 1 5 8 9 11 10 17 18 20 22 17 14 12 12 9 10 13 11 9 9 6 4 4 3 3 2 3 8 11 11 12 13 13 13 12 11 10 8 7 7 7 8 7 7 7 9 12 13 13 13 13 13 12 13 14 14 14 14 15 16 16 16 17 17 17 17 17 17 18
16 16 17 18 18 11 6 3 2 3 3 2 3 4 4 6 6 8 9 9 8 5 2 1 0 2 4 5 6 7 8 8 9 5 14 13 17 25 18 15 13 10 7 8 9 9 10 10 8 6 5 5 4 3 5 9 12 12 13 12 12 12 12 11 9 8 7 6 7 7 7 7 7 9 12 12 12 12 13 13 13 13 14 14 14 14 15 15 16 16 17 17 17 17 17 17 18
16 16 13 12 11 7 3 2 4 2 4 3 3 4 6 6 6 8 8 7 6 4 1 3 1 3 1 3 7 5 5 6 8 4 12 12 15 24 19 18 14 11 8 6 5 6 10 11 9 7 6 6 5 4 6 10 14 14 13 12 12 11 10 10 9 7 6 6 6 6 6 6 7 9 11 11 12 12 12 12 13 13 14 15 14 14 14 15 16 16 16 16 16 16 16 16 17
17 18 10 7 8 6 3 2 3 3 3 4 4 4 7 6 6 7 8 7 5 4 1 3 3 2 2 4 5 5 5 4 7 4 9 11 17 22 19 18 14 13 12 9 8 5 10 11 9 8 7 6 5 5 6 11 15 14 14 13 12 11 10 10 8 7 5 5 5 5 6 6 7 8 10 10 11 11 11 11 12 13 14 14 14 14 14 15 15 15 15 15 15 16 16 16 17
15 16 11 8 7 4 3 3 3 3 2 4 4 4 7 6 4 5 8 6 4 4 1 2 3 4 2 5 3 5 5 4 4 3 5 8 18 22 19 16 12 13 15 13 13 7 9 11 10 9 7 6 5 5 6 11 14 14 14 13 12 11 10 10 8 7 5 6 5 4 6 6 7 7 9 10 10 10 10 10 11 12 13 14 14 14 14 14 15 14 14 14 14 15 15 16 16
12 11 11 8 2 2 3 4 3 3 1 2 4 4 6 6 3 3 6 4 4 5 4 2 2 3 2 2 4 4 3 2 1 1 2 5 17 23 19 15 14 13 15 15 13 9 11 12 11 9 8 6 5 4 5 9 13 14 14 14 14 12 12 10 9 7 6 6 5 5 6 6 7 7 8 9 9 9 9 9 10 11 12 13 13 13 13 14 14 14 14 13 13 14 14 15 16
12 8 9 4 2 3 3 4 1 2 4 4 4 6 6 5 2 1 4 5 4 5 6 4 2 2 2 3 8 5 1 2 1 0 2 5 14 21 19 15 14 14 15 16 13 10 12 13 11 10 9 7 6 4 5 9 11 13 13 13 13 13 12 11 9 8 7 6 5 6 6 6 7 7 7 8 8 8 8 9 9 10 11 11 11 11 12 12 13 13 13 13 13 13 13 14 15
12 6 3 2 3 4 4 4 1 1 4 4 4 9 6 3 2 2 2 6 6 5 7 4 1 1 3 5 11 4 2 3 1 1 3 6 11 17 19 15 13 14 15 14 12 12 13 12 11 10 9 8 6 4 5 8 9 12 13 13 13 12 13 11 9 9 8 7 7 6 6 6 6 6 6 7 7 7 7 8 8 9 10 10 10 10 10 11 12 12 12 12 12 12 13 13 14
10 5 1 0 3 3 4 3 2 1 3 4 6 10 5 2 2 2 2 5 8 5 7 4 3 0 3 6 10 4 1 2 1 1 2 7 10 15 19 16 12 13 14 13 10 12 14 13 11 10 9 9 7 5 6 7 7 10 13 14 13 12 13 13 11 9 8 8 7 7 7 7 6 7 6 5 6 6 6 7 8 8 8 8 8 8 8 9 10 11 11 11 12 12 13 13 13
6 5 2 1 3 3 4 4 3 2 2 3 6 7 5 4 2 3 2 4 7 6 7 4 1 1 3 4 7 5 3 1 2 2 2 5 10 14 17 16 14 13 13 12 10 11 14 14 12 11 10 9 8 7 7 7 7 9 12 14 14 12 13 14 12 10 9 9 9 8 8 8 7 7 6 5 5 5 5 6 7 7 7 7 7 7 7 7 9 10 10 10 11 12 12 12 12
5 5 3 2 3 4 4 4 4 4 3 3 6 5 6 6 1 1 1 4 6 5 7 5 2 1 1 7 6 6 5 3 3 3 2 4 10 14 16 17 16 13 12 12 11 10 12 15 14 13 12 10 8 8 8 8 8 9 11 14 14 13 14 14 13 12 11 10 9 8 8 8 8 7 7 6 5 5 4 5 5 6 6 6 6 6 5 6 7 8 8 9 10 10 11 11 11
6 8 5 2 4 4 4 3 3 4 1 4 7 7 6 5 4 4 2 2 4 4 8 6 1 2 1 7 8 7 5 4 3 3 3 5 10 15 16 18 18 15 14 12 11 9 9 13 15 14 13 11 10 9 9 8 9 9 10 13 15 15 15 15 14 13 12 11 10 9 9 8 8 8 7 7 6 5 4 4 5 5 5 5 5 4 4 5 5 6 7 8 8 9 9 9 10
7 9 5 2 4 4 4 3 1 4 1 5 5 7 6 6 5 1 4 3 5 6 7 3 2 2 2 4 8 9 3 1 2 4 4 6 10 15 16 18 19 19 18 14 12 11 9 10 14 15 14 13 12 11 11 10 10 11 11 12 14 15 16 17 15 14 13 12 10 9 9 9 9 9 8 8 7 7 6 5 5 5 5 4 4 4 4 4 4 5 6 6 7 7 7 8 9
4 6 3 2 4 4 4 3 2 3 1 6 5 4 5 7 5 1 2 2 2 3 3 1 2 2 4 5 9 7 2 1 2 4 6 7 10 14 17 17 17 19 20 16 14 13 12 10 11 14 15 15 13 13 13 11 11 11 12 12 13 15 17 18 17 15 14 13 11 10 10 10 10 10 10 10 9 8 7 6 5 5 5 4 4 4 3 3 3 3 4 5 5 5 6 6 7
3 3 3 2 4 4 3 3 2 2 2 6 7 3 2 6 5 2 1 2 1 2 2 2 3 2 1 3 5 4 1 1 2 4 7 8 10 13 16 17 16 18 20 18 15 14 14 12 11 12 13 15 15 14 14 14 13 12 13 13 13 15 18 19 18 17 16 14 12 12 11 11 11 11 11 11 11 10 9 8 7 6 6 5 5 4 3 3 2 2 3 3 3 3 4 4 5
4 2 3 4 4 4 4 5 3 2 1 5 8 4 2 3 5 4 1 3 5 5 3 5 5 4 6 6 7 7 5 4 3 4 6 8 11 12 14 17 17 17 19 18 16 17 16 14 13 12 12 14 15 13 14 15 15 14 14 14 13 15 17 19 20 19 17 15 14 13 12 12 12 12 13 13 12 11 10 10 9 8 7 6 5 5 4 4 3 2 2 2 2 2 2 2 3
6 2 3 5 4 5 9 9 6 4 5 4 6 4 1 2 2 2 1 4 6 6 7 10 10 8 9 9 10 9 8 7 6 6 6 8 10 11 12 15 17 18 19 19 16 17 18 16 14 14 13 13 14 14 14 15 15 16 15 15 15 15 17 19 20 20 19 18 16 14 13 13 12 13 15 14 14 13 12 11 10 9 8 7 7 6 5 5 5 4 3 3 2 1 1 0 0
9 6 4 5 6 8 13 15 11 7 8 8 5 2 2 2 3 1 3 6 6 6 5 9 12 15 14 11 10 8 8 9 9 9 8 9 10 11 12 13 15 16 18 19 18 17 18 19 16 15 16 15 15 16 16 16 15 16 17 17 16 16 17 19 20 21 21 20 18 16 15 13 12 13 15 15 15 14 13 13 12 11 10 9 9 8 7 6 6 6 5 4 3 3 2 2 2
8 8 5 7 8 9 12 17 16 9 8 8 8 9 5 4 5 4 4 5 5 5 5 4 2 9 16 13 9 7 7 8 10 12 11 11 11 12 13 13 14 15 17 18 18 18 18 18 18 17 18 18 17 17 18 18 16 16 18 18 18 18 18 19 20 21 21 21 20 19 18 16 14 16 17 16 15 15 14 14 13 13 12 12 11 10 9 8 8 7 6 6 5 5 4 4 4
7 7 9 12 12 9 13 19 14 7 8 7 6 7 9 10 6 5 6 4 6 6 7 8 8 4 7 8 7 8 8 9 10 13 13 13 13 13 13 14 14 15 16 18 19 19 19 19 18 18 19 19 19 18 18 19 18 17 17 18 19 19 19 20 20 21 21 21 21 21 20 19 19 20 20 18 16 15 16 15 15 14 14 13 13 12 11 10 9 9 8 8 7 7 7 6 6
7 8 12 16 16 13 14 17 13 8 6 4 5 8 12 12 8 8 9 9 10 13 9 6 6 2 1 4 8 9 10 11 10 11 14 15 15 15 15 15 15 15 16 17 18 18 19 19 19 19 18 19 19 19 19 19 19 19 18 17 18 19 18 19 20 21 22 21 22 22 22 22 22 22 21 20 18 17 17 17 17 16 15 15 15 14 13 11 10 10 10 9 9 9 8 8 8
10 7 11 16 19 19 17 16 17 15 7 6 9 11 14 12 8 8 12 13 12 13 13 9 8 6 5 6 11 12 12 13 11 10 11 14 15 16 16 16 16 16 16 17 17 18 18 19 20 20 19 19 19 19 20 20 20 20 20 19 19 19 19 19 20 21 22 22 22 22 22 23 24 23 22 21 20 19 20 19 19 18 17 17 16 15 14 13 12 12 12 11 10 10 10 10 10
12 9 12 15 17 19 19 16 19 19 13 14 12 10 15 16 12 13 15 15 14 12 13 12 11 11 10 9 12 15 15 15 14 11 11 13 15 17 19 18 18 19 18 17 17 18 17 18 20 21 20 20 20 20 21 22 21 21 22 22 21 21 21 20 20 21 22 23 23 23 23 23 24 24 23 23 22 21 21 22 21 19 19 19 18 16 15 15 14 14 14 14 13 12 12 12 12
11 13 15 16 15 17 19 18 19 18 15 14 11 10 17 18 14 15 17 18 18 17 17 17 18 18 17 14 13 15 18 18 17 15 13 12 14 18 20 20 21 21 19 18 18 18 17 18 20 20 21 21 22 22 22 23 23 22 23 23 23 23 23 23 22 22 22 23 23 23 23 23 23 23 23 23 23 23 22 23 23 21 21 21 20 18 17 16 16 16 16 16 15 14 15 15 15
12 16 16 17 17 18 20 20 21 20 16 16 14 11 16 18 12 9 13 13 13 17 17 16 16 19 20 18 16 16 18 19 19 18 16 15 16 18 19 20 22 23 22 21 19 17 17 18 18 19 21 22 23 23 23 23 23 24 24 24 24 24 25 25 25 24 23 23 24 23 24 23 23 24 24 25 25 24 24 24 24 23 23 23 21 20 19 18 19 19 18 18 18 17 17 17 18
16 16 14 16 17 17 18 17 18 17 13 16 16 12 14 16 11 11 15 14 12 15 16 15 15 16 17 17 17 16 18 19 18 19 20 20 20 19 19 20 22 23 24 23 20 18 18 18 18 18 20 22 24 24 24 24 24 25 25 24 24 25 25 26 26 26 25 25 25 24 24 25 25 25 26 26 26 25 25 25 25 25 25 25 23 22 21 20 20 20 20 20 20 19 19 19 19
18 14 10 12 13 14 16 16 17 14 9 13 12 9 11 11 13 18 23 22 20 22 24 24 24 20 18 18 18 18 18 18 18 21 22 22 21 20 19 20 21 22 23 24 23 22 21 20 19 19 21 22 23 24 25 25 25 25 26 26 25 25 26 26 27 27 27 26 26 26 25 26 26 26 27 28 27 27 27 27 26 26 26 26 25 23 23 22 22 22 22 22 22 22 21 20 21
14 12 8 7 9 10 13 16 18 15 12 13 8 5 7 8 15 23 27 28 26 26 27 27 27 25 23 21 20 20 19 19 21 23 23 23 22 21 19 20 22 22 22 23 24 24 23 23 22 22 23 23 23 23 25 25 26 26 26 27 26 26 27 27 27 27 27 27 27 27 27 26 26 27 28 28 29 30 29 29 28 27 27 28 27 26 25 24 24 24 23 24 25 24 23 22 23
7 7 7 6 7 6 9 15 16 13 15 18 12 6 8 6 12 20 24 27 27 26 26 25 26 25 24 23 23 22 21 21 22 24 25 24 24 22 20 20 22 23 22 22 23 23 24 25 25 25 24 24 24 24 24 25 25 26 27 28 28 28 28 28 28 27 27 27 27 28 28 27 28 28 28 28 30 31 31 31 29 29 29 29 29 28 27 26 26 26 26 26 26 27 26 25 25
4 6 5 5 7 6 7 13 15 12 13 21 15 6 7 8 14 22 24 24 23 22 23 23 22 22 22 21 21 22 22 22 23 24 25 25 25 24 22 21 22 24 23 21 20 21 23 25 25 26 26 25 25 24 24 25 25 26 27 28 29 29 29 28 28 28 28 28 28 28 29 29 29 28 28 28 30 32 32 32 31 31 30 30 30 30 29 28 28 28 28 28 28 28 28 27 27
5 6 5 5 6 6 6 9 17 16 10 16 17 7 3 6 13 21 22 22 22 20 20 20 19 20 20 20 20 21 21 21 22 23 24 25 25 25 23 23 24 24 22 20 19 20 22 24 25 26 27 26 26 25 24 25 26 26 26 28 29 30 30 30 30 30 30 30 30 30 30 30 30 29 29 29 30 31 32 33 33 32 31 31 31 31 31 30 29 29 29 30 30 30 30 29 29
4 6 6 7 7 7 5 4 12 17 12 11 14 12 8 6 10 17 18 18 20 19 20 21 19 20 21 21 22 21 20 20 20 22 23 24 25 25 23 23 25 25 23 21 20 20 21 22 24 24 26 27 27 27 26 26 26 27 27 28 29 30 31 32 32 32 32 32 32 32 31 32 31 31 31 31 31 31 32 33 34 33 33 32 32 32 32 31 30 31 31 31 31 31 31 31 30
7 7 5 6 8 9 8 6 5 10 11 10 10 11 11 9 11 18 21 22 22 19 17 19 20 21 21 21 21 20 20 19 19 20 20 22 23 24 23 22 23 25 25 25 24 24 24 24 23 23 25 26 27 27 27 27 28 29 30 30 30 31 33 34 34 35 35 34 34 34 33 34 34 33 33 33 32 32 33 34 34 34 34 34 33 34 34 33 32 32 31 31 32 31 32 32 31
8 8 6 7 8 8 9 9 8 6 6 9 10 11 10 10 10 14 19 23 26 24 20 19 20 22 22 22 23 23 22 22 21 20 19 18 19 20 20 21 21 23 25 27 28 28 29 28 27 26 26 26 27 28 29 30 31 32 33 33 34 35 35 36 37 37 37 36 36 36 35 36 36 35 35 34 33 34 34 35 36 35 35 35 35 35 35 34 33 32 32 31 32 32 32 32 32
9 7 8 9 7 7 7 8 9 9 7 7 10 11 11 12 10 12 17 20 21 23 22 22 24 24 24 24 26 26 25 25 24 22 21 20 19 18 20 22 22 23 24 26 29 31 31 31 31 31 30 29 29 29 30 32 34 34 35 35 36 37 37 37 38 38 39 39 38 38 38 38 38 37 37 35 35 35 35 36 37 37 36 37 37 36 36 35 34 33 32 32 32 32 33 33 32
12 8 8 8 6 6 6 6 5 6 6 6 8 11 13 12 10 11 16 16 15 18 20 22 25 26 27 26 26 27 27 27 26 24 24 25 24 23 24 26 26 26 27 26 28 30 32 33 34 34 33 32 32 31 32 33 35 35 35 35 36 37 38 38 38 38 38 39 40 40 40 40 40 40 39 37 36 36 37 37 38 38 37 38 37 37 37 36 36 35 34 34 34 33 34 33 33
10 8 8 8 7 5 6 8 6 4 4 4 5 10 11 11 11 12 14 16 17 22 25 25 26 26 27 27 26 27 27 27 28 27 26 27 28 28 29 30 29 29 29 29 28 28 30 32 34 36 36 35 33 33 33 35 35 34 34 35 35 36 37 38 38 37 38 39 40 40 41 43 43 43 42 40 39 38 38 38 38 38 38 38 38 38 38 37 37 37 36 36 35 35 35 34 34
9 8 7 8 7 5 5 5 6 6 5 6 6 9 9 9 10 10 15 21 22 26 29 29 29 28 28 28 27 27 27 27 28 29 29 29 29 30 31 31 31 32 31 32 32 31 32 32 33 35 36 37 36 36 36 36 35 34 34 35 36 37 38 38 38 39 40 40 40 40 42 44 45 45 44 42 41 40 40 40 39 39 39 38 38 38 38 38 38 38 37 37 37 37 37 36 35
10 10 10 9 7 7 7 5 6 7 7 8 6 7 9 9 10 11 13 19 22 26 28 29 31 32 31 29 28 28 28 28 27 28 29 29 30 31 32 33 33 33 34 34 34 35 36 35 35 35 35 36 36 37 36 36 35 35 36 37 38 39 40 40 42 43 43 42 42 41 42 43 44 44 44 43 43 42 42 42 42 41 41 40 40 39 39 38 38 38 38 37 37 38 38 37 36
8 11 12 11 8 9 10 7 6 5 6 5 2 7 8 6 10 12 10 12 17 20 22 26 30 32 31 29 29 31 31 31 31 31 31 31 31 32 33 34 34 35 36 36 36 37 38 36 36 36 35 35 35 34 35 36 37 37 38 39 40 41 43 45 47 47 46 45 43 42 42 42 43 43 43 42 42 42 43 43 43 44 43 43 42 41 40 39 39 39 38 38 37 37 36 36 38
8 9 10 11 10 11 11 8 6 4 5 2 2 5 8 4 8 11 9 10 13 14 15 20 26 28 29 29 30 32 32 33 34 35 36 35 35 35 34 34 35 37 37 37 38 38 39 38 37 38 38 37 37 37 39 41 42 42 42 43 43 43 45 47 48 48 47 46 44 43 43 43 43 43 42 42 42 42 42 44 45 46 46 45 44 42 42 41 40 39 39 38 38 36 36 37 39
8 5 3 8 11 12 11 9 8 6 4 3 2 4 7 10 10 8 8 10 10 11 11 13 18 23 26 30 33 33 31 30 31 34 36 37 38 38 38 38 37 38 39 39 40 40 40 40 40 40 40 40 41 41 43 45 46 46 45 45 45 45 46 46 47 48 48 47 46 45 45 45 45 45 44 43 42 42 42 43 44 46 47 46 45 45 44 43 41 40 40 39 38 38 38 39 39
8 1 3 2 3 4 5 5 7 5 4 6 7 5 5 13 11 5 7 11 11 12 12 10 15 19 23 27 31 32 30 29 30 33 35 35 37 38 39 40 39 39 40 40 41 41 41 41 41 42 42 42 43 44 45 46 46 46 46 46 46 47 47 46 46 47 48 48 48 47 47 47 47 47 46 45 44 43 42 42 43 45 45 46 46 45 45 44 43 42 41 41 40 39 39 39 39
8 3 2 1 3 4 3 2 2 3 4 9 10 8 6 13 11 4 5 9 8 9 9 10 16 23 27 28 28 28 29 30 30 32 33 35 36 36 36 38 38 37 38 39 41 41 41 41 41 41 42 42 42 44 46 46 46 46 46 46 47 47 47 47 47 47 48 48 49 49 49 50 49 49 49 48 47 46 44 43 43 44 44 44 45 45 44 44 44 43 42 42 41 40 40 39 39
7 4 4 2 0 2 3 2 2 2 6 12 15 13 10 11 10 4 5 7 6 7 7 7 13 20 25 28 27 26 27 28 29 29 31 33 34 34 35 36 37 36 35 36 37 39 40 40 40 41 41 40 40 42 43 44 44 45 46 46 47 47 47 48 48 48 48 49 50 51 51 51 50 51 51 50 49 48 47 46 45 44 43 44 44 44 44 44 44 43 43 42 42 42 41 40 39
6 5 5 2 1 1 2 0 1 3 8 11 14 14 12 11 10 2 3 7 7 6 7 7 9 15 20 22 23 24 25 25 27 28 29 30 31 32 32 33 34 33 31 31 32 34 37 38 39 40 40 40 39 39 41 42 42 44 45 45 46 46 46 48 49 50 49 49 50 51 51 51 50 50 50 51 51 50 49 49 47 46 45 45 45 44 44 44 43 43 43 43 43 42 42 41 41
6 5 6 5 3 3 3 4 4 7 9 8 8 10 10 10 12 11 12 12 10 11 13 10 8 12 16 15 15 19 22 24 26 26 27 27 28 30 31 32 32 30 29 30 30 31 34 36 38 39 40 39 38 39 39 40 41 42 43 44 44 44 45 48 50 51 50 50 50 50 51 51 52 51 51 52 53 51 50 50 49 49 48 46 45 44 44 44 43 43 44 44 44 43 43 43 43
7 6 7 8 5 5 7 6 6 8 8 7 8 8 7 4 9 17 18 17 17 23 27 23 19 19 15 11 11 14 17 19 22 24 25 27 30 34 35 34 32 29 28 28 27 28 30 33 35 37 38 38 37 38 38 39 40 40 41 42 43 43 44 46 49 50 51 51 51 51 52 52 52 52 53 53 53 52 51 50 50 51 50 48 47 46 45 44 44 44 44 44 44 44 43 43 44
7 6 5 7 6 6 8 6 7 7 5 5 8 7 6 5 7 13 13 17 22 25 29 31 33 34 29 23 23 23 23 24 25 28 32 35 38 38 36 35 32 28 26 27 27 27 28 30 32 33 34 34 35 35 36 36 37 37 38 40 41 42 43 45 47 48 49 51 52 52 53 52 52 52 52 52 52 52 52 51 51 51 50 50 49 47 46 45 45 45 45 45 45 44 44 44 44
6 6 5 8 9 8 5 3 5 4 4 3 5 4 4 3 6 8 7 13 16 17 23 28 29 33 34 32 31 32 32 32 33 36 39 40 38 35 33 32 30 29 29 30 31 30 29 29 30 31 31 31 31 32 33 34 35 35 37 38 39 41 42 43 45 46 47 50 52 53 53 52 52 52 52 51 51 52 52 51 51 51 51 50 49 48 48 47 46 45 45 45 45 45 45 45 44
4 7 9 7 6 6 4 6 5 4 6 5 4 6 5 2 7 8 8 12 10 8 13 16 19 24 26 28 33 36 34 33 35 37 38 36 33 32 31 30 30 30 30 29 29 28 27 27 28 29 30 29 30 31 32 33 34 35 36 37 38 39 41 42 43 44 45 47 50 51 51 51 51 51 51 51 51 51 52 52 51 52 51 50 50 49 48 47 46 45 45 45 45 44 45 45 45
3 5 10 5 2 1 1 4 5 7 9 6 7 10 7 3 4 5 9 13 11 9 10 11 17 21 21 25 29 29 27 28 32 33 31 28 27 26 25 24 23 23 22 22 22 22 23 24 25 26 26 27 28 28 29 31 32 34 35 36 37 38 39 40 41 42 43 45 48 49 50 50 50 50 50 51 51 51 51 51 51 51 51 51 50 50 49 47 46 46 45 45 44 44 45 46 46
11 5 6 5 0 3 4 3 4 7 8 6 8 10 7 6 5 4 7 10 9 9 9 7 9 13 19 27 26 22 23 24 21 16 12 10 10 11 11 13 15 16 16 17 18 19 19 19 19 20 21 22 23 25 26 28 29 30 32 32 34 35 37 38 39 40 41 43 45 46 48 50 50 49 50 50 50 51 51 51 51 51 51 50 50 50 49 48 47 47 46 45 45 45 46 46 46
13 8 3 2 1 4 5 3 3 5 7 6 7 8 5 5 6 6 9 10 8 6 5 5 6 11 13 10 8 7 10 7 4 5 6 7 7 7 9 11 13 13 13 14 15 16 16 16 16 17 19 20 21 22 24 26 28 29 30 31 32 33 34 36 37 39 41 42 42 43 45 46 47 48 49 50 50 51 51 51 51 51 50 50 50 49 49 49 49 48 47 46 45 45 46 46 45
8 8 7 5 4 2 1 2 2 3 4 5 7 8 5 3 2 2 3 5 5 5 6 5 8 15 19 17 15 13 11 12 11 10 11 13 14 15 16 16 16 17 17 17 18 19 19 19 19 20 21 21 22 22 23 25 26 27 28 29 31 32 33 34 35 37 39 40 41 41 42 43 44 46 47 48 50 50 51 50 50 50 50 50 50 50 49 49 49 49 48 47 46 46 47 46 45
7 9 10 9 8 5 3 6 5 3 3 4 6 7 4 3 2 3 4 5 4 6 6 5 11 17 19 21 21 18 17 16 15 17 19 20 20 21 21 21 22 23 23 22 22 24 24 24 24 24 24 23 23 24 25 25 25 26 27 28 28 29 31 32 34 36 38 39 39 40 40 41 43 44 45 47 48 49 50 50 50 50 50 50 50 50 49 49 50 50 48 48 47 47 48 47 46
Wind_Direction
339 337 342 339 344 330 307 298 279 238 207 42 68 88 80 73 135 80 83 105 89 54 30 36 34 24 25 349 33 63 46 38 47 41 132 148 147 131 130 173 188 190 182 163 169 169 174 178 169 192 167 127 57 87 73 107 127 121 116 115 134 148 139 129 125 119 104 79 72 82 94 97 87 81 85 81 80 84 83 79 79 79 77 76 79 81 81 81 79 79 78 76 75 75 76 81 85
341 338 344 345 344 317 289 296 270 265 129 87 57 79 138 156 84 51 58 65 65 63 42 39 40 33 31 13 62 71 55 50 62 95 131 149 153 134 146 180 176 174 177 161 168 172 174 171 166 180 163 131 100 110 89 129 135 123 117 112 117 133 135 126 123 118 104 83 79 92 99 97 85 81 83 81 80 83 86 84 80 79 79 79 80 81 81 79 79 78 78 77 75 75 77 81 84
338 340 347 346 343 315 277 278 267 318 19 94 71 69 91 60 64 61 65 70 74 75 61 39 35 34 327 275 1 70 78 61 58 105 138 155 161 137 147 180 165 171 177 162 169 176 175 166 167 170 160 144 130 125 109 141 141 128 121 117 115 119 124 121 119 114 105 90 84 97 98 94 84 81 83 80 80 81 82 84 83 81 80 81 79 78 79 79 79 79 78 77 76 75 77 81 84
340 346 338 328 329 321 290 270 285 340 9 73 84 62 57 61 69 77 79 83 87 89 90 6 115 63 316 316 3 58 91 76 59 104 135 150 162 137 150 184 164 172 171 157 170 175 173 165 168 168 162 151 143 125 117 149 146 134 126 121 120 118 121 121 120 117 112 96 90 102 100 97 88 82 83 80 79 79 79 80 81 81 80 81 78 77 77 78 78 78 77 76 77 76 78 81 85
347 344 327 309 310 319 333 316 301 3 23 13 74 71 60 57 76 94 94 97 96 88 53 322 48 88 37 0 360 51 88 80 80 115 135 144 165 143 159 187 164 164 148 130 170 162 157 161 168 168 165 151 144 128 124 153 148 139 135 130 128 124 126 126 126 128 121 104 99 108 107 103 95 87 84 83 81 78 77 79 81 81 79 78 78 78 78 78 78 76 76 75 76 76 78 80 84
347 343 346 305 286 298 308 268 299 67 24 359 65 69 70 60 63 98 112 108 98 95 28 337 19 353 90 96 37 80 107 93 93 133 159 158 168 154 167 184 163 155 132 140 194 172 151 159 168 167 164 157 144 131 132 154 153 144 140 136 134 135 136 134 136 137 135 122 112 114 118 112 102 96 90 87 85 81 79 79 81 81 79 79 78 78 77 76 77 76 76 76 75 76 77 77 79
341 337 352 325 278 265 275 280 324 69 359 355 56 53 70 75 68 119 131 125 137 133 129 32 358 310 90 123 94 82 107 133 120 128 189 170 165 165 169 170 156 147 133 165 204 192 171 164 167 171 162 160 148 136 137 157 159 151 145 144 144 146 146 145 148 147 149 140 129 128 130 124 113 103 95 92 88 86 84 82 82 82 81 81 79 79 79 78 77 76 76 76 76 76 76 75 76
340 314 311 321 286 252 270 287 321 79 55 31 69 61 64 76 79 153 144 141 163 142 146 116 317 289 83 110 110 99 109 138 185 124 226 177 167 172 169 160 153 148 148 182 201 184 179 168 167 171 162 160 155 147 140 160 165 160 154 152 154 155 156 156 157 155 159 157 148 148 144 135 124 112 101 96 94 92 90 88 86 84 83 81 80 79 80 80 78 77 76 76 77 78 78 77 77
335 292 283 306 298 304 286 268 272 85 80 90 96 102 92 83 94 211 140 125 134 131 132 136 318 326 13 54 102 108 86 57 345 194 210 183 178 178 171 164 161 158 167 188 197 184 176 170 174 167 164 165 161 163 147 162 171 171 166 161 161 162 163 159 159 166 168 172 167 159 156 148 134 123 113 106 103 101 96 93 90 88 86 83 82 80 80 81 80 79 77 77 78 78 79 78 79
327 288 280 339 291 303 275 271 150 141 87 101 88 92 87 69 124 232 174 127 125 122 107 126 206 313 333 95 115 118 36 38 9 219 203 189 188 184 175 167 169 175 181 191 197 194 184 176 181 172 171 173 170 173 159 167 176 179 176 172 172 169 168 160 164 177 176 177 174 166 165 159 144 133 125 120 116 112 106 101 96 92 89 87 85 82 82 82 81 80 79 78 78 78 78 78 79
319 291 269 301 274 278 271 306 56 160 110 119 93 87 83 40 148 201 222 119 113 119 112 164 195 23 291 111 122 143 113 0 313 223 199 198 188 187 183 169 176 191 185 192 200 195 192 187 185 183 181 182 179 176 171 177 181 181 181 183 183 177 171 168 172 181 186 187 181 176 173 168 158 148 142 135 130 125 116 108 101 97 93 91 89 87 85 83 83 81 80 80 80 79 78 78 78
308 301 300 277 275 278 295 329 0 336 35 90 95 95 111 117 187 179 203 121 121 145 135 174 139 35 280 105 123 145 133 203 258 249 219 204 185 188 188 172 180 201 191 186 203 199 192 195 194 192 192 191 185 181 182 185 190 185 183 189 190 182 174 175 176 179 191 195 188 184 180 176 169 163 159 153 149 141 129 117 107 102 99 97 94 91 87 85 86 83 82 81 80 80 79 79 79
304 315 319 281 286 288 307 324 343 336 347 57 101 109 118 132 162 65 157 134 130 163 135 138 114 311 303 103 128 136 135 189 231 249 231 197 188 189 189 182 181 199 208 189 202 211 194 198 202 200 198 198 194 191 192 192 200 193 188 191 190 185 178 177 177 179 191 198 192 185 186 183 179 176 173 171 168 158 145 132 121 114 108 104 100 95 92 88 89 87 84 81 79 80 79 79 78
311 316 322 290 311 298 296 297 330 328 358 86 105 115 108 104 70 27 335 121 101 108 123 134 96 289 138 111 139 144 152 206 225 225 217 200 195 193 192 196 185 188 214 201 197 215 210 202 200 205 204 203 201 200 202 200 203 200 199 195 191 187 181 181 180 183 192 199 195 184 189 191 188 186 185 186 182 179 169 155 143 133 126 119 112 104 101 95 92 90 87 83 81 79 79 79 77
303 314 318 273 303 288 283 279 310 314 42 102 103 121 109 86 90 49 321 6 74 103 131 160 245 258 354 76 152 165 162 195 220 214 209 208 202 197 197 206 198 193 212 210 195 201 219 213 200 203 207 209 206 206 209 204 204 205 205 199 195 189 184 186 185 189 196 202 198 188 193 197 198 195 195 197 194 195 188 181 172 157 151 143 135 125 116 107 99 92 90 86 82 81 80 80 78
286 312 312 245 273 263 272 266 180 255 126 104 115 132 122 105 116 150 312 345 77 158 181 216 232 252 14 83 153 171 126 118 221 219 210 211 205 202 203 212 209 202 212 215 199 193 210 217 210 206 206 212 212 212 213 207 204 206 208 205 201 193 188 191 191 196 201 206 202 193 198 201 206 205 203 205 203 205 199 198 195 184 177 168 164 152 143 128 115 101 95 89 85 82 80 79 79
252 267 257 250 249 243 262 266 223 214 134 129 146 147 134 126 134 153 260 277 244 223 204 206 210 228 244 150 186 210 177 195 220 215 216 213 208 208 210 216 216 209 214 217 201 194 208 211 214 217 211 211 212 215 216 211 206 206 209 211 208 198 194 195 197 201 204 209 204 199 204 206 212 213 212 211 211 212 207 210 209 204 200 190 188 178 169 156 146 130 110 100 93 84 79 77 74
238 229 226 247 238 242 245 247 278 281 193 146 130 83 10 115 136 151 236 236 208 207 196 202 193 203 231 226 242 247 236 237 231 226 224 215 215 217 215 218 222 218 220 222 205 196 207 211 211 217 220 214 208 214 219 214 207 207 210 212 216 208 201 200 202 205 207 209 206 204 208 212 217 218 218 216 216 217 214 217 217 218 217 212 208 199 194 183 188 178 158 151 121 106 84 79 72
219 236 239 240 238 263 270 280 321 349 332 10 82 89 28 22 65 123 283 261 222 213 198 193 186 199 221 223 237 248 245 241 239 238 232 224 224 227 225 223 226 227 229 233 222 205 204 210 212 213 220 221 209 209 222 222 211 207 209 210 215 215 210 207 206 209 210 210 209 207 210 216 221 222 222 220 218 218 219 221 223 226 227 227 223 218 213 203 211 212 200 207 201 200 153 153 153
214 222 247 243 246 268 273 284 301 314 316 326 333 287 175 3 323 262 290 299 277 262 232 195 190 200 208 213 226 239 243 244 244 240 239 235 231 235 239 236 235 237 240 242 239 228 214 211 213 212 216 223 215 209 218 227 220 210 210 211 213 215 214 213 213 213 214 214 213 210 212 216 221 226 225 223 221 218 220 224 225 228 230 232 231 229 224 218 224 229 226 227 235 245 245 254 259
212 210 234 249 255 269 271 277 283 294 301 300 313 319 321 313 305 290 289 304 274 282 0 33 115 187 200 209 220 231 245 248 244 240 243 242 236 239 243 247 247 246 248 248 246 243 235 224 217 214 215 220 220 215 216 223 228 221 215 214 215 217 215 215 217 217 218 219 218 217 217 216 218 225 227 226 225 221 220 226 229 230 232 235 236 236 231 226 230 234 236 239 244 251 257 265 277
243 240 247 255 259 267 273 280 293 335 336 328 340 325 308 298 286 266 262 267 262 285 9 20 15 73 183 218 234 236 249 253 248 241 241 243 242 241 242 246 249 247 247 248 249 247 244 239 231 224 221 223 223 222 221 221 226 228 224 218 218 221 218 215 217 219 221 222 222 221 220 219 220 225 229 229 228 228 227 228 233 235 236 239 240 242 240 234 235 240 240 243 250 253 256 263 274
243 257 254 258 264 266 266 274 297 336 348 336 311 295 298 298 286 268 260 260 265 276 300 328 334 351 197 258 255 249 255 260 258 244 240 242 243 242 240 244 250 253 251 249 250 248 245 245 241 235 232 233 232 228 228 226 224 226 229 224 221 226 225 220 219 220 222 224 226 224 222 221 222 227 231 232 228 230 234 233 234 236 239 241 242 244 246 244 242 246 248 246 251 256 259 263 268
232 244 248 253 257 261 260 259 277 288 283 265 259 272 284 282 280 277 270 271 269 269 277 293 302 282 247 234 250 260 264 267 268 256 243 239 243 246 245 246 250 254 254 252 251 251 250 248 244 240 239 240 241 237 234 235 231 227 228 228 225 228 231 228 224 222 222 226 229 228 226 224 225 229 232 234 231 228 234 238 238 238 241 244 244 244 246 251 249 251 256 255 255 261 265 268 269
241 247 251 253 256 261 264 258 264 267 262 269 257 247 264 261 264 270 268 270 271 271 272 274 278 274 258 234 242 257 263 268 269 264 250 239 238 241 244 244 243 247 252 253 252 252 252 251 247 245 244 244 244 242 239 239 239 233 229 229 228 228 232 234 232 228 225 226 231 232 232 230 230 231 233 236 235 232 232 237 241 242 243 245 247 247 246 250 253 253 257 260 261 263 266 269 270
240 245 248 250 253 259 267 265 268 267 253 263 262 243 256 255 257 265 259 259 262 265 267 267 266 263 258 246 239 247 255 261 265 265 259 248 240 236 239 241 239 243 250 251 251 252 252 251 250 249 249 247 247 245 242 242 243 239 234 231 231 230 232 236 237 236 231 229 232 233 235 235 236 237 237 239 239 238 236 237 241 243 244 246 248 249 248 249 253 253 254 258 260 262 264 267 268
248 253 255 251 249 250 258 259 259 264 254 250 255 248 252 252 247 253 251 249 255 255 255 261 263 258 253 246 243 246 246 250 258 262 259 250 243 236 235 237 239 241 246 249 250 251 251 251 250 250 249 247 247 247 245 244 244 244 240 236 235 235 236 239 242 242 240 237 237 236 236 236 238 239 240 241 242 241 242 242 242 243 246 248 249 249 249 247 251 253 254 256 258 260 262 264 267
258 263 271 265 263 261 258 257 252 256 254 246 256 262 255 252 242 244 251 250 250 252 253 255 257 258 253 245 245 246 243 244 248 251 254 253 250 243 235 234 237 239 242 246 247 248 248 249 249 249 249 248 247 248 248 246 243 244 245 242 239 239 240 242 245 246 247 246 245 243 240 237 237 238 238 241 244 244 245 245 244 244 247 250 251 251 251 249 249 252 255 258 259 260 261 263 267
258 256 268 270 270 265 251 252 251 249 248 241 257 276 255 245 243 247 252 250 246 247 250 253 255 254 249 244 244 243 244 244 240 241 250 257 258 254 244 238 239 239 243 246 248 248 248 249 248 247 247 247 248 249 250 249 246 245 246 246 243 241 241 242 244 246 248 250 251 250 247 243 239 237 237 240 244 246 246 247 246 246 247 251 252 252 252 251 251 252 254 257 260 261 262 264 266
255 248 254 266 264 259 242 244 247 242 243 235 231 261 243 232 238 240 245 245 240 240 242 247 253 251 244 241 242 243 246 245 241 241 247 255 261 262 255 246 245 244 245 248 250 250 250 250 249 248 246 246 247 248 249 250 248 247 248 248 247 244 243 243 244 245 247 250 252 253 251 249 246 241 239 239 243 246 247 248 249 248 248 250 253 253 252 252 253 254 254 255 259 262 263 263 264
249 247 244 245 253 257 231 230 232 231 235 224 214 245 244 239 248 245 245 240 232 232 235 240 248 249 245 241 242 246 247 245 246 247 248 253 260 265 264 256 251 248 247 248 252 254 253 252 251 250 249 249 248 246 248 250 250 250 250 250 250 248 246 245 245 247 249 250 251 253 253 252 250 246 243 242 243 245 247 249 250 251 251 251 253 254 253 253 253 255 255 255 258 260 262 262 263
232 240 241 220 238 257 241 227 221 223 222 209 207 245 241 237 250 248 248 245 236 230 228 231 239 244 242 239 241 246 248 245 246 249 249 252 256 261 264 261 257 254 251 250 251 253 253 252 252 252 251 251 251 249 248 249 250 250 251 252 252 251 249 247 248 249 250 251 251 252 253 253 251 249 248 246 245 246 248 250 251 251 252 253 254 254 254 254 254 255 256 257 258 261 263 263 264
223 233 242 229 236 247 246 229 220 222 218 201 205 226 225 222 244 247 246 245 248 249 244 239 237 241 243 243 245 247 248 243 238 243 248 249 253 258 260 260 260 260 259 255 249 248 249 250 251 252 252 252 253 251 248 247 248 249 250 251 252 252 252 250 249 248 248 249 251 251 252 253 252 251 250 248 248 248 250 251 251 252 253 254 255 256 256 256 256 256 257 258 260 262 264 266 266
224 231 237 241 246 251 251 229 213 214 218 210 209 222 232 241 272 278 273 259 251 249 252 250 239 237 241 245 250 248 247 244 236 239 245 246 251 257 260 259 259 260 261 258 253 250 250 249 250 251 252 253 253 253 251 249 248 248 249 250 251 253 253 252 250 248 248 249 250 251 252 253 253 252 250 249 248 249 251 252 252 252 253 254 255 257 258 257 257 257 258 259 261 263 266 268 270
213 222 232 241 239 246 250 257 235 207 213 224 224 231 236 237 254 262 260 261 261 253 250 250 240 237 240 243 248 246 244 246 243 241 243 247 251 254 258 259 258 258 260 259 257 256 255 254 252 250 250 250 251 252 252 251 249 247 246 246 248 250 251 251 250 249 249 249 250 251 252 253 253 252 251 251 250 250 250 252 252 252 253 254 256 257 258 259 258 258 259 261 262 264 266 268 269
223 228 234 238 235 239 234 240 250 227 219 228 232 242 244 240 241 242 240 244 255 260 259 255 246 243 243 243 247 249 246 247 248 244 238 242 249 251 255 258 259 260 260 259 258 257 257 256 254 252 249 248 248 248 249 248 247 246 244 244 244 246 248 249 250 251 250 251 251 252 252 253 253 253 252 252 252 252 252 252 252 252 254 255 256 257 259 260 260 261 261 261 263 264 265 266 266
258 262 251 245 245 248 237 231 223 211 222 231 231 246 251 248 248 250 248 243 244 252 255 252 249 248 245 241 241 244 246 248 249 243 232 232 240 245 250 256 260 261 261 258 257 257 258 258 257 255 252 248 247 246 246 246 246 246 245 244 245 246 248 249 251 252 253 253 252 252 253 254 253 253 254 254 253 253 253 253 252 252 254 255 257 259 260 261 262 262 262 261 261 262 264 264 265
252 262 267 265 256 260 264 266 245 210 224 230 227 244 249 249 252 253 256 255 249 247 248 247 247 249 248 244 240 240 244 247 248 244 233 230 234 239 244 252 258 261 262 261 259 260 260 259 259 259 256 253 251 249 249 250 250 249 250 250 251 251 251 253 255 257 257 256 255 254 254 254 253 253 254 254 254 254 254 254 254 254 254 255 258 259 260 261 261 261 261 260 260 260 262 263 263
241 246 255 260 254 270 272 269 278 265 254 252 247 256 255 251 251 250 249 252 256 255 255 253 249 249 249 247 245 243 243 243 244 244 239 236 239 242 244 248 256 261 261 262 262 262 259 259 260 260 259 258 256 254 253 253 254 255 256 256 256 256 256 257 259 259 258 257 256 255 255 254 253 253 253 254 253 254 254 255 255 256 255 255 256 257 258 259 259 259 259 260 261 260 260 260 260
232 235 240 249 244 254 263 252 255 256 254 257 268 277 273 265 260 252 246 248 254 255 255 257 254 250 249 248 248 246 242 241 241 242 243 244 244 244 244 247 254 257 257 257 259 259 258 259 261 261 262 262 260 259 258 257 258 259 259 258 258 257 257 258 258 256 254 254 254 254 254 253 253 253 254 254 253 253 255 255 256 255 255 255 255 256 257 257 258 259 259 260 260 260 261 260 259
229 229 233 245 240 241 251 253 266 276 265 246 254 279 268 252 253 254 247 248 252 251 252 257 255 253 253 251 250 248 245 244 243 242 243 245 244 244 246 248 253 255 255 255 256 257 258 260 263 264 265 266 264 261 260 257 255 255 255 254 252 251 251 251 251 252 251 251 252 252 253 253 253 254 255 255 255 254 255 255 255 255 255 255 255 255 257 258 258 259 260 260 260 260 261 262 260
239 228 228 241 253 256 258 268 280 282 271 255 247 277 268 222 226 243 239 237 245 244 245 249 250 253 254 252 252 251 249 247 248 249 248 247 247 247 247 248 250 252 255 258 258 258 259 260 262 264 265 265 263 260 259 257 254 254 254 253 252 251 250 249 249 251 252 253 253 253 254 255 255 256 256 256 256 256 256 256 256 255 255 255 256 256 257 257 258 259 260 260 260 261 260 259 260
241 226 216 228 241 252 260 272 280 259 261 302 88 261 276 255 228 241 241 237 239 237 237 241 241 244 248 249 252 252 251 249 249 252 252 250 251 252 249 247 249 252 255 259 259 259 259 259 259 260 260 261 260 259 259 258 257 256 256 257 257 256 256 256 255 255 256 257 257 256 256 256 257 257 258 258 257 257 257 256 256 256 255 256 256 256 256 256 257 259 260 260 260 260 257 255 259
241 232 205 222 227 236 243 245 249 256 279 302 226 240 281 277 251 237 247 254 253 248 244 243 241 240 241 243 246 249 249 249 249 252 252 251 252 253 252 250 250 252 254 257 258 257 258 258 259 259 258 259 258 258 258 258 259 258 258 258 258 258 259 261 260 257 256 256 257 257 256 257 257 257 258 258 258 258 258 257 256 255 255 256 255 255 256 256 257 258 259 259 258 257 256 256 257
240 144 71 283 266 258 258 246 244 252 263 258 236 211 260 272 257 208 233 249 252 255 254 254 254 251 248 246 244 243 244 247 250 252 252 252 251 253 255 255 255 253 252 254 255 256 258 258 259 258 258 258 258 257 256 256 258 259 258 257 257 259 261 261 259 256 255 254 255 256 256 257 257 257 257 257 258 258 258 258 257 256 257 256 255 255 256 256 256 256 257 257 257 257 257 257 257
238 173 123 302 346 358 346 334 301 290 249 245 234 198 214 267 267 208 225 247 240 244 245 241 245 247 249 250 248 243 240 244 248 249 251 253 253 255 257 259 260 258 255 253 253 255 256 257 257 257 257 258 259 257 255 256 257 257 256 255 257 259 261 260 255 253 254 253 252 254 255 255 256 256 257 257 257 257 257 258 258 257 257 257 256 256 255 256 256 256 256 257 258 258 258 257 257
234 235 221 214 107 345 335 0 25 335 255 242 235 214 210 260 272 207 210 250 244 244 251 244 239 239 241 244 246 245 240 239 242 246 250 253 256 259 260 260 261 263 261 256 253 253 255 256 257 258 259 259 259 258 256 256 257 256 255 255 257 259 260 258 254 252 254 252 252 253 253 254 255 256 257 257 257 257 256 256 257 257 257 256 256 255 255 256 256 257 256 256 257 257 257 257 257
207 221 224 225 168 177 297 314 147 246 243 237 233 225 220 245 264 233 204 245 244 248 256 251 248 252 252 247 243 243 241 240 242 245 250 252 256 259 260 262 263 264 263 259 256 256 256 256 258 259 260 259 259 258 257 257 257 257 257 257 257 259 259 257 254 255 255 253 254 254 252 252 253 254 255 256 257 257 255 255 256 256 256 256 256 256 255 256 256 256 256 255 255 257 257 256 256
191 200 201 215 205 187 217 210 210 235 245 242 224 218 221 240 259 260 252 250 251 264 269 270 270 270 267 256 245 243 241 241 243 245 246 248 256 264 265 269 268 263 261 261 261 260 259 259 258 259 260 260 262 262 261 260 260 260 260 260 260 260 259 257 255 256 257 255 255 254 252 252 252 252 253 256 257 257 256 256 257 257 257 257 257 256 255 254 254 255 255 255 255 256 257 256 256
193 193 189 199 197 212 225 217 229 242 249 241 211 214 225 220 249 251 251 251 249 254 263 269 268 269 274 264 250 248 242 239 241 244 247 253 265 272 273 273 269 264 262 262 263 263 262 262 260 260 262 264 264 264 263 262 261 262 262 262 262 261 260 258 257 257 257 256 254 254 254 253 253 254 256 258 260 259 259 260 260 259 259 258 256 256 255 254 252 252 253 254 254 255 255 256 258
196 192 194 206 195 213 224 214 229 243 263 236 194 206 215 179 225 239 236 245 243 239 244 250 251 255 262 261 252 249 249 249 249 252 259 266 272 275 276 273 266 262 263 265 268 267 265 265 264 264 267 268 268 266 264 263 263 264 265 264 264 262 261 260 259 258 258 257 255 254 253 252 253 256 258 260 260 260 260 261 260 259 259 257 256 255 254 252 251 250 250 251 252 253 252 254 256
194 182 196 218 212 219 241 254 239 244 288 247 187 222 230 198 262 260 236 248 244 225 227 235 240 246 251 251 249 248 248 249 253 258 265 270 272 272 274 272 264 263 269 272 274 271 269 270 270 271 272 273 272 270 267 266 266 267 266 266 266 264 263 261 260 259 258 257 256 254 252 252 253 255 257 258 258 259 260 260 260 259 259 258 257 256 254 252 251 249 249 249 250 250 250 251 254
174 186 203 219 222 223 254 283 277 269 269 244 206 248 258 276 284 272 262 266 263 234 226 229 237 243 242 240 242 245 246 249 254 260 265 269 270 271 274 275 272 273 276 278 278 277 276 278 277 278 278 277 276 275 272 270 269 268 267 267 266 265 263 262 262 261 260 259 257 254 252 251 251 252 254 255 256 257 259 260 259 259 259 258 258 257 255 253 251 250 250 250 251 250 249 250 252
199 189 194 182 29 59 189 260 257 249 254 239 226 248 253 250 257 238 238 250 254 249 243 234 234 238 238 237 241 245 249 255 259 263 268 272 275 278 280 281 281 283 287 288 289 289 289 289 288 287 286 284 284 281 278 275 271 268 267 266 266 265 265 265 265 265 264 261 258 256 253 251 250 251 252 253 253 254 255 257 258 258 258 258 257 257 256 254 251 250 251 252 252 250 248 249 250
225 225 174 149 153 203 181 219 236 235 251 249 241 251 247 234 248 260 248 253 259 252 254 259 246 248 249 241 238 245 252 257 263 270 283 294 296 296 293 292 293 296 299 300 301 302 300 299 298 299 299 298 294 288 282 277 273 270 268 266 266 266 266 266 266 266 265 262 260 259 256 254 252 252 252 252 251 251 252 254 256 256 256 256 256 256 255 253 251 250 251 252 252 250 249 249 249
221 236 216 145 190 204 193 218 239 240 259 264 249 247 239 226 233 249 258 271 291 300 324 336 331 335 317 272 244 261 270 283 343 29 26 10 353 338 324 319 318 316 316 318 319 317 315 314 314 315 316 314 310 304 294 284 277 272 270 268 266 265 265 265 266 266 264 264 263 261 259 257 256 255 253 252 251 250 251 252 253 254 254 254 255 255 254 253 251 250 251 252 252 251 249 250 250
200 211 216 206 190 175 217 236 213 227 248 254 252 247 240 239 242 262 301 323 343 7 13 345 340 2 12 20 22 17 17 22 21 9 354 344 336 329 325 324 326 327 326 325 324 324 323 322 322 322 321 319 319 318 312 302 289 279 274 272 270 267 266 266 267 266 265 265 265 263 262 259 258 256 254 252 250 250 250 250 251 252 253 253 253 254 254 253 250 250 250 251 251 251 250 251 251
188 198 203 211 207 189 226 237 212 198 211 226 254 260 235 235 326 21 13 359 14 30 25 6 3 11 11 6 1 358 358 356 349 342 338 332 328 326 322 321 323 324 323 321 320 322 322 321 320 320 319 318 318 317 316 313 302 288 279 276 275 273 270 268 268 267 266 266 266 265 264 262 259 257 255 252 250 249 248 248 249 250 251 252 252 253 253 251 249 249 249 250 250 250 250 250 250